Location: Poughquag
(41.6090°N, 73.6820°W)
Time: 00:39:27
(UTC-05:00)

Tiros 1 despin weight - Pass Details

Date: 13 December 2023
Orbit: 581 x 624 km, 48.2° (Epoch: 21 February)

Event Time Altitude Azimuth Distance (km) Brightness Sun altitude
Rises 17:10:26 0° 282° (WNW) 2,818 ? -8.4°
Reaches altitude 10° 17:12:54 10° 292° (WNW) 1,911 ? -8.8°
Maximum altitude 17:16:54 34° 358° (N) 973 ? -9.5°
Enters shadow 17:20:14 14° 60° (ENE) 1,680 ? -10.1°
